EDT,Max TemperatureF,Mean TemperatureF,Min TemperatureF,Max Dew PointF,MeanDew PointF,Min DewpointF,Max Humidity, Mean Humidity, Min Humidity, Max Sea Level PressureIn, Mean Sea Level PressureIn, Min Sea Level PressureIn, Max VisibilityMiles, Mean VisibilityMiles, Min VisibilityMiles, Max Wind SpeedMPH, Mean Wind SpeedMPH, Max Gust SpeedMPH,PrecipitationIn, CloudCover, Events, WindDirDegrees
2013-3-1,32,30,26,21,19,18,69,64,55,30.12,30.06,30.02,10,10,10,9,7,,0.00,8,,39
2013-3-2,30,27,24,18,16,12,69,60,55,30.12,30.09,30.07,10,10,10,12,8,17,0.00,5,,355
2013-3-3,32,26,21,16,13,10,68,52,44,30.10,30.06,30.04,10,10,10,13,8,24,0.00,4,,316
2013-3-4,33,26,19,18,16,12,86,59,44,30.14,30.09,30.03,10,10,10,8,3,,0.00,3,,93
2013-3-5,32,30,28,27,23,19,93,74,64,29.93,29.85,29.77,10,5,1,17,14,23,0.00,8,Snow,82
2013-3-6,35,32,28,27,25,25,86,73,65,30.23,30.15,30.04,10,10,10,8,6,,0.00,8,,324
2013-3-7,35,34,30,28,24,21,87,68,56,30.39,30.35,30.30,10,10,10,10,6,,0.00,7,,321
2013-3-8,37,26,15,25,18,12,93,63,45,30.49,30.45,30.40,10,9,7,7,2,,0.00,0,,180
2013-3-9,41,36,32,27,26,25,75,61,53,30.28,30.18,30.04,10,10,10,15,10,20,0.00,6,Rain,143
2013-3-10,55,48,41,39,36,34,76,60,54,29.89,29.83,29.77,10,10,10,12,8,,0.00,3,,158
2013-3-11,50,42,35,46,40,32,93,87,76,29.68,29.60,29.54,10,9,5,17,7,26,0.00,8,Rain,225
2013-3-12,35,32,30,28,25,21,87,74,56,29.93,29.90,29.84,10,8,1,15,13,23,0.00,8,Snow,249
2013-3-13,30,27,24,21,18,12,80,68,51,30.25,30.14,30.00,10,5,0,21,13,29,0.00,7,Snow,296
2013-3-14,39,27,15,21,16,10,86,58,41,30.30,30.23,30.15,10,10,10,12,4,17,0.00,1,,253
2013-3-15,46,38,30,37,32,27,93,76,57,29.97,29.89,29.82,10,7,3,8,5,,0.00,4,Rain,260
2013-3-16,35,34,32,34,30,23,93,86,69,29.97,29.85,29.71,10,7,2,12,7,17,0.00,8,,16
2013-3-17,37,32,28,18,16,16,60,52,41,30.21,30.18,30.12,10,10,10,15,8,18,0.00,4,,71
2013-3-18,35,32,28,32,29,23,93,89,80,29.83,29.69,29.59,10,3,1,14,11,21,0.00,8,Snow,105
2013-3-19,32,26,19,12,11,10,74,54,41,29.99,29.89,29.80,10,9,2,26,19,37,0.00,5,Snow,264
2013-3-20,24,22,17,14,10,7,80,62,54,30.02,30.00,29.98,10,7,1,17,13,23,0.00,8,Snow,289
2013-3-21,28,22,17,18,15,12,86,67,55,30.00,29.97,29.93,10,9,2,17,10,25,0.00,5,Snow,290
2013-3-22,39,29,19,19,14,10,86,50,33,30.03,30.01,29.99,10,10,10,14,7,20,0.00,0,,289
2013-3-23,39,30,21,21,19,18,86,59,48,30.13,30.09,30.07,10,10,10,10,6,18,0.00,6,,2
2013-3-24,37,34,30,21,21,19,69,59,48,29.91,29.77,29.60,10,10,10,18,11,26,0.00,8,,64
2013-3-25,35,32,30,27,25,23,80,69,60,29.93,29.76,29.60,10,9,4,12,9,21,0.00,8,Rain-Snow,347
2013-3-26,39,36,32,28,26,21,87,69,49,30.19,30.13,30.04,10,10,5,14,9,23,0.00,8,Snow,311
2013-3-27,42,36,30,30,21,14,93,56,36,30.27,30.26,30.22,10,9,5,14,6,23,0.00,5,,299
2013-3-28,48,36,24,27,19,16,75,45,29,30.32,30.30,30.27,10,10,10,10,6,17,0.00,0,,293
2013-3-29,50,37,24,48,19,12,94,47,22,30.32,30.28,30.23,10,10,10,12,3,16,0.00,0,,320
2013-3-30,55,40,24,27,22,19,80,43,32,30.22,30.13,29.99,10,10,10,12,4,16,0.00,0,,192
2013-3-31,59,52,44,43,35,27,93,55,29,29.76,29.73,29.69,10,8,2,21,12,29,0.00,3,,280